"SCET";"TARGET";"ELECTRON_DENSITY";"ERROR_FLAG";"ELECTRON_DENSITY_ERROR";"FREQ_FCE";"MEASURED_VALUE";"MEASURED_ITEM";"FREQ_PLASMA";"FREQ_UPPER_HYBRID";"FREQ_R_EQUALS_ZERO";"FREQ_L_EQUALS_ZERO";"ORBIT_NUMBER";"SATURN_RADIUS";"SATURN_IAU_LONGITUDE";"SATURN_SLS4_S_LONGITUDE";"SATURN_SLS4_N_LONGITUDE";"SATURN_SLS5_S_LONGITUDE";"SATURN_SLS5_N_LONGITUDE";"SATURN_LOCAL_TIME";"SATURN_KRONOGRAPHIC_LATITUDE";"SATURN_MAGNETIC_LATITUDE";"SATURN_L";"SATURN_L_OFFSET";"SATURN_SOLAR_EQUATORIAL_X";"SATURN_SOLAR_EQUATORIAL_Y";"SATURN_SOLAR_EQUATORIAL_Z";"SATURN_ALTITUDE";"ENCELADUS_ENCOUNTER_NUMBER";"ENCELADUS_RADIUS";"ENCELADUS_COROTATIONAL_X";"ENCELADUS_COROTATIONAL_Y";"ENCELADUS_COROTATIONAL_Z";"ENCELADUS_TRUE_ANOMALY";"ENCELADUS_PERIAPSIS_TIME";"JUPITER_RADIUS";"JUPITER_SYSTEMIII_LONGITUDE";"JUPITER_MAGNETIC_LATITUDE";"JUPITER_MAGNETIC_LOCAL_TIME";"JUPITER_L";"IO_PHASE";"EARTH_RADIUS";"EARTH_MAGNETIC_LATITUDE";"EARTH_LOCAL_TIME";"EARTH_L"
"[UTC]";"[0=Saturn, 1=Enceladus, 2=Jupiter, 3=Earth]";"[cm-3]";"[0=automated, 1=manual]";"[normalized density error]";"[Hz]";"[Hz]";"[0=upper hybrid frequency, 1=plasma frequency cutoff]";"[Hz]";"[Hz]";"[Hz]";"[Hz}";"[0, A, B, C, 3, 4, ... , 292, 293]";"[Rs where 1Rs=60268km]";"[degrees]";"[degrees]";"[degrees]";"[degrees]";"[degrees]";"[hours]";"[degrees]";"[degrees where offset=2293km north]";"[Rs where 1Rs=60268km]";"[Rs where 1Rs=60268km and offset=2293km north]";"[Rs where 1Rs=60268km]";"[Rs where 1Rs=60268km]";"[Rs where 1Rs=60268km]";"[km where ellipsoid a,b=60268km and c=54364km]";"[E0, E1, E2, ... , E21, E22]";"[Renc where 1Renc=252.1km]";"[Renc where 1Renc=252.1km]";"[Renc where 1Renc=252.1km]";"[Renc where 1Renc=252.1km]";"[degrees]";"[UTC]";"[Rj where 1Rj=71492km]";"[degrees]";"[degrees using JRM09 model]";"[hours using JRM09 model]";"[Rj where 1Rj=71492km]";"[degrees]";"[Re where 1Re=6378.1366km]";"[degrees]";"[hours]";"[Re where 1Re=6378.1366km]"
2016-12-18T20:51:24.142Z;0;1.7190e+00;0;     0.122; 35937.973;  11773.336; 1;  11773.336;  37817.316;  39451.441;   3513.469;253;   2.609; 253.805;;; 310.777; 114.369;  12.980;  15.910;  15.104;   2.821;   2.596;   2.427;   0.637;   0.715;;;;;;;;;;;;;;;;;;
2016-12-18T20:51:56.142Z;0;1.6350e+00;0;     0.149; 35937.973;  11482.899; 1;  11482.899;  37727.906;  39293.652;   3355.681;253;   2.607; 253.992;;; 310.963; 114.551;  12.988;  15.701;  14.893;   2.813;   2.594;   2.426;   0.642;   0.705;;;;;;;;;;;;;;;;;;
2016-12-18T20:52:12.142Z;0;1.6840e+00;0;     0.236; 35944.773;  11654.937; 1;  11654.937;  37787.094;  39393.039;   3448.263;253;   2.606; 254.085;;; 311.055; 114.642;  12.992;  15.596;  14.787;   2.809;   2.593;   2.426;   0.644;   0.700;;;;;;;;;;;;;;;;;;
2016-12-18T20:52:28.142Z;0;1.7840e+00;0;     0.178; 35944.773;  11994.035; 1;  11994.035;  37893.055;  39579.414;   3634.639;253;   2.605; 254.179;;; 311.148; 114.733;  12.995;  15.490;  14.681;   2.805;   2.592;   2.425;   0.647;   0.695;;;;;;;;;;;;;;;;;;
2016-12-18T20:52:44.142Z;0;1.8470e+00;0;     0.150; 35944.773;  12205.068; 1;  12205.068;  37960.379;  39697.266;   3752.492;253;   2.603; 254.273;;; 311.241; 114.824;  12.999;  15.385;  14.575;   2.801;   2.591;   2.425;   0.649;   0.691;;;;;;;;;;;;;;;;;;
2016-12-18T20:53:00.142Z;0;1.9820e+00;0;     0.132; 35949.117;  12643.129; 1;  12643.129;  38107.578;  39950.305;   4001.189;253;   2.602; 254.366;;; 311.334; 114.914;  13.003;  15.280;  14.469;   2.797;   2.590;   2.424;   0.652;   0.686;;;;;;;;;;;;;;;;;;
2016-12-18T20:53:16.142Z;0;2.0400e+00;0;     0.114; 35949.117;  12825.143; 1;  12825.143;  38168.352;  40055.523;   4106.407;253;   2.601; 254.460;;; 311.427; 115.005;  13.007;  15.174;  14.363;   2.792;   2.589;   2.424;   0.654;   0.681;;;;;;;;;;;;;;;;;;
2016-12-18T20:53:32.142Z;0;2.2280e+00;0;     0.172; 35949.117;  13404.684; 1;  13404.684;  38366.969;  40397.098;   4447.981;253;   2.600; 254.553;;; 311.519; 115.095;  13.010;  15.069;  14.256;   2.788;   2.588;   2.423;   0.657;   0.676;;;;;;;;;;;;;;;;;;
2016-12-18T20:53:48.141Z;0;2.3160e+00;0;     0.143; 35949.117;  13665.934; 1;  13665.934;  38459.023;  40554.250;   4605.134;253;   2.599; 254.647;;; 311.612; 115.186;  13.014;  14.963;  14.150;   2.784;   2.587;   2.423;   0.659;   0.671;;;;;;;;;;;;;;;;;;
2016-12-18T20:54:04.141Z;0;2.7310e+00;0;     0.143; 35953.371;  14840.418; 1;  14840.418;  38895.797;  41287.609;   5334.240;253;   2.598; 254.741;;; 311.705; 115.276;  13.018;  14.857;  14.043;   2.781;   2.586;   2.422;   0.661;   0.666;;;;;;;;;;;;;;;;;;
2016-12-18T20:54:20.141Z;0;2.5710e+00;0;     0.133; 35953.371;  14398.157; 1;  14398.157;  38729.211;  41008.578;   5055.209;253;   2.597; 254.834;;; 311.798; 115.367;  13.022;  14.751;  13.937;   2.777;   2.585;   2.422;   0.664;   0.661;;;;;;;;;;;;;;;;;;
2016-12-18T20:54:36.141Z;0;2.4200e+00;0;     0.078; 35953.371;  13969.004; 1;  13969.004;  38571.723;  40742.762;   4789.392;253;   2.595; 254.928;;; 311.891; 115.457;  13.026;  14.645;  13.830;   2.773;   2.583;   2.421;   0.666;   0.656;;;;;;;;;;;;;;;;;;
2016-12-18T20:54:52.141Z;0;2.5290e+00;0;     0.148; 35953.371;  14280.981; 1;  14280.981;  38685.801;  40935.512;   4982.140;253;   2.594; 255.021;;; 311.983; 115.547;  13.029;  14.539;  13.723;   2.769;   2.582;   2.421;   0.669;   0.651;;;;;;;;;;;;;;;;;;
2016-12-18T20:55:08.141Z;0;2.6880e+00;0;     0.156; 35957.965;  14724.014; 1;  14724.014;  38855.781;  41217.750;   5259.787;253;   2.593; 255.115;;; 312.076; 115.637;  13.033;  14.433;  13.616;   2.765;   2.581;   2.420;   0.671;   0.646;;;;;;;;;;;;;;;;;;
2016-12-18T20:55:24.141Z;0;2.5380e+00;0;     0.103; 35957.965;  14307.530; 1;  14307.530;  38699.879;  40956.129;   4998.164;253;   2.592; 255.209;;; 312.169; 115.728;  13.037;  14.327;  13.509;   2.761;   2.580;   2.420;   0.673;   0.641;;;;;;;;;;;;;;;;;;
2016-12-18T20:55:40.141Z;0;2.9800e+00;0;     0.131; 35957.965;  15501.213; 1;  15501.213;  39156.898;  41717.797;   5759.834;253;   2.591; 255.302;;; 312.262; 115.818;  13.041;  14.220;  13.402;   2.757;   2.579;   2.419;   0.676;   0.636;;;;;;;;;;;;;;;;;;
2016-12-18T20:55:56.141Z;0;3.2980e+00;0;     0.145; 35957.965;  16308.975; 1;  16308.975;  39483.641;  42252.969;   6295.005;253;   2.590; 255.396;;; 312.355; 115.908;  13.044;  14.114;  13.295;   2.754;   2.578;   2.418;   0.678;   0.631;;;;;;;;;;;;;;;;;;
2016-12-18T20:56:12.140Z;0;3.1030e+00;0;     0.099; 35963.062;  15818.755; 1;  15818.755;  39288.355;  41930.820;   5967.759;253;   2.589; 255.490;;; 312.448; 115.997;  13.048;  14.007;  13.187;   2.750;   2.577;   2.418;   0.681;   0.626;;;;;;;;;;;;;;;;;;
2016-12-18T20:56:28.140Z;0;2.9430e+00;0;     0.128; 35963.062;  15404.133; 1;  15404.133;  39123.254;  41659.004;   5695.943;253;   2.588; 255.583;;; 312.541; 116.087;  13.052;  13.900;  13.080;   2.746;   2.576;   2.417;   0.683;   0.622;;;;;;;;;;;;;;;;;;
2016-12-18T20:56:44.140Z;0;3.2250e+00;0;     0.137; 35963.062;  16126.535; 1;  16126.535;  39413.281;  42135.215;   6172.156;253;   2.587; 255.677;;; 312.634; 116.177;  13.056;  13.794;  12.972;   2.743;   2.575;   2.417;   0.686;   0.617;;;;;;;;;;;;;;;;;;
2016-12-18T20:57:00.140Z;0;3.5610e+00;0;     0.093; 35966.531;  16945.105; 1;  16945.105;  39758.371;  42692.262;   6725.729;253;   2.586; 255.771;;; 312.726; 116.267;  13.059;  13.687;  12.865;   2.739;   2.574;   2.416;   0.688;   0.612;;;;;;;;;;;;;;;;;;
2016-12-18T20:57:16.140Z;0;3.7600e+00;0;     0.216; 35966.531;  17412.779; 1;  17412.779;  39959.934;  43015.301;   7048.768;253;   2.584; 255.864;;; 312.819; 116.357;  13.063;  13.580;  12.757;   2.735;   2.573;   2.416;   0.690;   0.607;;;;;;;;;;;;;;;;;;
2016-12-18T20:57:32.140Z;0;3.8170e+00;0;     0.091; 35966.531;  17544.898; 1;  17544.898;  40017.684;  43107.387;   7140.852;253;   2.583; 255.958;;; 312.912; 116.446;  13.067;  13.472;  12.649;   2.732;   2.572;   2.415;   0.693;   0.602;;;;;;;;;;;;;;;;;;
2016-12-18T20:57:48.140Z;0;4.3200e+00;0;     0.125; 35966.531;  18664.174; 1;  18664.174;  40520.895;  43901.395;   7934.859;253;   2.582; 256.052;;; 313.005; 116.536;  13.071;  13.365;  12.541;   2.728;   2.571;   2.414;   0.695;   0.597;;;;;;;;;;;;;;;;;;
2016-12-18T20:58:04.140Z;0;4.1820e+00;0;     0.105; 35971.570;  18362.961; 1;  18362.961;  40387.527;  43689.613;   7718.043;253;   2.581; 256.145;;; 313.098; 116.625;  13.074;  13.258;  12.433;   2.725;   2.570;   2.414;   0.698;   0.592;;;;;;;;;;;;;;;;;;
2016-12-18T20:58:20.140Z;0;4.7180e+00;0;     0.139; 35971.570;  19505.959; 1;  19505.959;  40919.879;  44518.234;   8546.665;253;   2.580; 256.239;;; 313.191; 116.715;  13.078;  13.150;  12.325;   2.721;   2.569;   2.413;   0.700;   0.587;;;;;;;;;;;;;;;;;;
2016-12-18T20:58:36.140Z;0;4.5360e+00;0;     0.111; 35971.570;  19124.898; 1;  19124.898;  40739.609;  44239.359;   8267.790;253;   2.579; 256.333;;; 313.284; 116.804;  13.082;  13.043;  12.217;   2.718;   2.568;   2.412;   0.702;   0.582;;;;;;;;;;;;;;;;;;
2016-12-18T20:58:52.139Z;0;4.5880e+00;0;     0.147; 35971.570;  19234.176; 1;  19234.176;  40791.023;  44319.074;   8347.501;253;   2.578; 256.426;;; 313.377; 116.893;  13.086;  12.935;  12.108;   2.714;   2.567;   2.412;   0.705;   0.577;;;;;;;;;;;;;;;;;;
2016-12-18T20:59:08.139Z;0;4.4800e+00;0;     0.128; 35978.266;  19007.740; 1;  19007.740;  40690.656;  44159.785;   8181.521;253;   2.577; 256.520;;; 313.470; 116.983;  13.090;  12.827;  12.000;   2.711;   2.566;   2.411;   0.707;   0.572;;;;;;;;;;;;;;;;;;
2016-12-18T20:59:24.139Z;0;5.1650e+00;0;     0.133; 35978.266;  20408.656; 1;  20408.656;  41363.617;  45194.316;   9216.054;253;   2.576; 256.614;;; 313.563; 117.072;  13.093;  12.719;  11.891;   2.707;   2.565;   2.411;   0.710;   0.567;;;;;;;;;;;;;;;;;;
2016-12-18T20:59:56.139Z;0;5.6890e+00;0;     0.135; 35978.266;  21418.750; 1;  21418.750;  41871.211;  45960.039;   9981.776;253;   2.574; 256.801;;; 313.749; 117.250;  13.101;  12.503;  11.674;   2.700;   2.563;   2.409;   0.714;   0.557;;;;;;;;;;;;;;;;;;
2016-12-18T21:00:12.139Z;0;5.7990e+00;0;     0.108; 35983.586;  21625.469; 1;  21625.469;  41981.895;  46123.012;  10139.427;253;   2.573; 256.895;;; 313.842; 117.341;  13.105;  12.395;  11.565;   2.697;   2.562;   2.409;   0.717;   0.552;;;;;;;;;;;;;;;;;;
2016-12-18T21:00:28.139Z;0;6.1880e+00;0;     0.126; 35983.586;  22338.264; 1;  22338.264;  42353.469;  46674.586;  10691.001;253;   2.572; 256.989;;; 313.935; 117.433;  13.108;  12.287;  11.456;   2.694;   2.561;   2.408;   0.719;   0.547;;;;;;;;;;;;;;;;;;
2016-12-18T21:00:44.139Z;0;6.6490e+00;0;     0.174; 35983.586;  23156.387; 1;  23156.387;  42790.613;  47316.234;  11332.648;253;   2.571; 257.082;;; 314.028; 117.524;  13.112;  12.179;  11.347;   2.691;   2.560;   2.407;   0.721;   0.542;;;;;;;;;;;;;;;;;;
2016-12-18T21:02:20.138Z;0;6.9970e+00;0;     0.167; 35996.578;  23754.402; 1;  23754.402;  43128.008;  47801.141;  11804.564;253;   2.565; 257.645;;; 314.585; 118.076;  13.135;  11.526;  10.691;   2.671;   2.555;   2.403;   0.736;   0.512;;;;;;;;;;;;;;;;;;
2016-12-18T21:02:36.138Z;0;7.8350e+00;0;     0.142; 35996.578;  25135.906; 1;  25135.906;  43904.070;  48913.531;  12916.953;253;   2.564; 257.738;;; 314.678; 118.168;  13.138;  11.417;  10.582;   2.668;   2.554;   2.402;   0.738;   0.507;;;;;;;;;;;;;;;;;;
2016-12-18T21:02:52.138Z;0;8.5150e+00;0;     0.137; 35996.578;  26204.809; 1;  26204.809;  44524.664;  49788.703;  13792.125;253;   2.563; 257.832;;; 314.771; 118.261;  13.142;  11.308;  10.472;   2.665;   2.553;   2.402;   0.740;   0.502;;;;;;;;;;;;;;;;;;
2016-12-18T21:03:08.138Z;0;8.2750e+00;0;     0.141; 36004.500;  25832.080; 1;  25832.080;  44312.758;  49488.395;  13483.896;253;   2.562; 257.926;;; 314.864; 118.353;  13.146;  11.199;  10.362;   2.662;   2.552;   2.401;   0.743;   0.497;;;;;;;;;;;;;;;;;;
2016-12-18T21:03:24.138Z;0;8.7690e+00;0;     0.144; 36004.500;  26591.672; 1;  26591.672;  44759.816;  50114.523;  14110.022;253;   2.561; 258.020;;; 314.957; 118.445;  13.150;  11.090;  10.252;   2.659;   2.551;   2.400;   0.745;   0.492;;;;;;;;;;;;;;;;;;
2016-12-18T21:04:44.137Z;0;1.2390e+01;0;     0.137; 36010.605;  31605.439; 1;  31605.439;  47913.125;  54379.672;  18369.066;253;   2.556; 258.488;;; 315.421; 118.909;  13.169;  10.542;   9.701;   2.645;   2.547;   2.396;   0.757;   0.468;;;;;;;;;;;;;;;;;;
2016-12-18T21:05:00.137Z;0;1.0210e+01;0;     0.090; 36024.352;  28688.869; 1;  28688.869;  46052.199;  51886.793;  15862.441;253;   2.555; 258.582;;; 315.514; 119.002;  13.172;  10.432;   9.591;   2.642;   2.546;   2.396;   0.759;   0.463;;;;;;;;;;;;;;;;;;
2016-12-18T21:05:16.137Z;0;1.2130e+01;0;     0.106; 36024.352;  31270.674; 1;  31270.674;  47703.344;  54099.480;  18075.129;253;   2.554; 258.676;;; 315.607; 119.095;  13.176;  10.322;   9.480;   2.639;   2.545;   2.395;   0.762;   0.458;;;;;;;;;;;;;;;;;;
2016-12-18T21:05:48.137Z;0;1.3680e+01;0;     0.141; 36024.352;  33207.852; 1;  33207.852;  48995.055;  55790.477;  19766.123;253;   2.552; 258.863;;; 315.793; 119.281;  13.184;  10.102;   9.259;   2.633;   2.543;   2.393;   0.766;   0.448;;;;;;;;;;;;;;;;;;
2016-12-18T21:47:40.121Z;0;1.4980e+01;0;     0.209; 38794.699;  34759.156; 1;  34759.156;  52088.652;  59202.578;  20407.877;253;   2.474; 273.416;;; 330.321; 133.553;  13.785;  -7.961;  -8.832;   2.522;   2.477;   2.187;   1.104;  -0.343;;;;;;;;;;;;;;;;;;
2016-12-18T21:47:56.121Z;0;1.4120e+01;0;     0.177; 38794.699;  33745.688; 1;  33745.688;  51417.898;  58320.719;  19526.018;253;   2.474; 273.506;;; 330.411; 133.640;  13.789;  -8.078;  -8.949;   2.523;   2.477;   2.185;   1.105;  -0.348;;;;;;;;;;;;;;;;;;
2016-12-18T21:48:12.121Z;0;1.3950e+01;0;     0.184; 38927.477;  33544.590; 1;  33544.590;  51386.648;  58246.164;  19318.689;253;   2.473; 273.597;;; 330.501; 133.727;  13.793;  -8.196;  -9.066;   2.525;   2.477;   2.183;   1.107;  -0.353;;;;;;;;;;;;;;;;;;
2016-12-18T21:48:28.120Z;0;1.2760e+01;0;     0.174; 38927.477;  32075.553; 1;  32075.553;  50439.957;  56982.773;  18055.299;253;   2.473; 273.688;;; 330.591; 133.813;  13.797;  -8.313;  -9.183;   2.526;   2.477;   2.182;   1.109;  -0.358;;;;;;;;;;;;;;;;;;
2016-12-18T21:49:00.120Z;0;1.2380e+01;0;     0.222; 39062.324;  31602.666; 1;  31602.666;  50245.336;  56682.137;  17619.811;253;   2.473; 273.869;;; 330.771; 133.985;  13.805;  -8.548;  -9.418;   2.529;   2.477;   2.178;   1.113;  -0.368;;;;;;;;;;;;;;;;;;
2016-12-18T21:49:16.120Z;0;1.2080e+01;0;     0.178; 39062.324;  31215.922; 1;  31215.922;  50002.988;  56353.711;  17291.387;253;   2.473; 273.960;;; 330.861; 134.071;  13.809;  -8.666;  -9.535;   2.531;   2.477;   2.176;   1.115;  -0.373;;;;;;;;;;;;;;;;;;
2016-12-18T21:52:28.119Z;0;7.5880e+00;0;     0.195; 39474.371;  24736.443; 1;  24736.443;  46584.520;  51382.852;  11908.479;253;   2.473; 275.043;;; 331.934; 135.125;  13.857; -10.075; -10.940;   2.551;   2.478;   2.153;   1.138;  -0.433;;;;;;;;;;;;;;;;;;
2016-12-18T21:52:44.119Z;0;7.4260e+00;0;     0.139; 39474.371;  24471.418; 1;  24471.418;  46444.336;  51176.121;  11701.752;253;   2.473; 275.133;;; 332.024; 135.214;  13.861; -10.192; -11.057;   2.553;   2.478;   2.151;   1.139;  -0.438;;;;;;;;;;;;;;;;;;
2016-12-18T21:53:00.119Z;0;7.1060e+00;0;     0.129; 39620.449;  23937.529; 1;  23937.529;  46290.227;  50881.918;  11261.472;253;   2.473; 275.223;;; 332.113; 135.302;  13.865; -10.309; -11.174;   2.555;   2.478;   2.149;   1.141;  -0.443;;;;;;;;;;;;;;;;;;
2016-12-18T21:53:16.119Z;0;7.4500e+00;0;     0.160; 39620.449;  24511.156; 1;  24511.156;  46589.449;  51325.961;  11705.515;253;   2.473; 275.313;;; 332.202; 135.391;  13.869; -10.427; -11.291;   2.557;   2.478;   2.147;   1.143;  -0.448;;;;;;;;;;;;;;;;;;
2016-12-18T21:53:32.118Z;0;7.6240e+00;0;     0.211; 39620.449;  24795.785; 1;  24795.785;  46739.820;  51547.836;  11927.387;253;   2.474; 275.403;;; 332.291; 135.480;  13.873; -10.544; -11.408;   2.559;   2.478;   2.145;   1.145;  -0.453;;;;;;;;;;;;;;;;;;
2016-12-18T21:54:04.118Z;0;7.2320e+00;0;     0.166; 39762.914;  24149.807; 1;  24149.807;  46522.062;  51162.207;  11399.296;253;   2.474; 275.583;;; 332.469; 135.657;  13.881; -10.778; -11.641;   2.563;   2.479;   2.141;   1.149;  -0.463;;;;;;;;;;;;;;;;;;
2016-12-18T21:54:20.118Z;0;7.3960e+00;0;     0.180; 39762.914;  24421.771; 1;  24421.771;  46663.820;  51372.648;  11609.736;253;   2.474; 275.672;;; 332.558; 135.746;  13.885; -10.896; -11.758;   2.565;   2.479;   2.139;   1.151;  -0.468;;;;;;;;;;;;;;;;;;
2016-12-18T21:54:52.118Z;0;6.5380e+00;0;     0.135; 39762.914;  22961.662; 1;  22961.662;  45916.523;  50254.309;  10491.397;253;   2.474; 275.852;;; 332.736; 135.923;  13.893; -11.130; -11.992;   2.570;   2.479;   2.135;   1.154;  -0.478;;;;;;;;;;;;;;;;;;
2016-12-18T21:55:08.118Z;0;6.1430e+00;0;     0.126; 39907.699;  22256.889; 1;  22256.889;  45694.570;  49845.742;   9938.042;253;   2.474; 275.942;;; 332.825; 136.012;  13.897; -11.247; -12.109;   2.572;   2.479;   2.133;   1.156;  -0.483;;;;;;;;;;;;;;;;;;
2016-12-18T21:55:24.118Z;0;6.0300e+00;0;     0.119; 39907.699;  22050.639; 1;  22050.639;  45594.465;  49692.492;   9784.791;253;   2.474; 276.031;;; 332.913; 136.101;  13.901; -11.364; -12.225;   2.574;   2.479;   2.131;   1.158;  -0.488;;;;;;;;;;;;;;;;;;
2016-12-18T21:55:56.118Z;0;5.5040e+00;0;     0.119; 39907.699;  21067.279; 1;  21067.279;  45127.098;  48970.852;   9063.151;253;   2.474; 276.210;;; 333.091; 136.279;  13.909; -11.599; -12.459;   2.579;   2.480;   2.127;   1.162;  -0.498;;;;;;;;;;;;;;;;;;
2016-12-18T21:56:12.117Z;0;5.5650e+00;0;     0.117; 40053.133;  21184.004; 1;  21184.004;  45310.211;  49178.332;   9125.198;253;   2.474; 276.300;;; 333.179; 136.368;  13.913; -11.716; -12.575;   2.581;   2.480;   2.125;   1.163;  -0.503;;;;;;;;;;;;;;;;;;
2016-12-18T21:56:28.117Z;0;5.3930e+00;0;     0.103; 40053.133;  20853.402; 1;  20853.402;  45156.590;  48938.980;   8885.849;253;   2.475; 276.389;;; 333.268; 136.457;  13.917; -11.833; -12.692;   2.583;   2.480;   2.123;   1.165;  -0.508;;;;;;;;;;;;;;;;;;
2016-12-18T21:56:44.117Z;0;5.3740e+00;0;     0.130; 40053.133;  20817.182; 1;  20817.182;  45139.875;  48912.867;   8859.735;253;   2.475; 276.478;;; 333.357; 136.546;  13.921; -11.950; -12.809;   2.586;   2.480;   2.121;   1.167;  -0.513;;;;;;;;;;;;;;;;;;
2016-12-18T21:57:00.117Z;0;5.8280e+00;0;     0.166; 40199.180;  21679.172; 1;  21679.172;  45672.320;  49662.746;   9463.562;253;   2.475; 276.568;;; 333.445; 136.635;  13.925; -12.067; -12.925;   2.588;   2.481;   2.119;   1.169;  -0.518;;;;;;;;;;;;;;;;;;
2016-12-18T21:57:16.117Z;0;5.1840e+00;0;     0.126; 40199.180;  20445.238; 1;  20445.238;  45099.688;  48770.156;   8570.975;253;   2.475; 276.657;;; 333.534; 136.724;  13.929; -12.184; -13.042;   2.590;   2.481;   2.117;   1.171;  -0.522;;;;;;;;;;;;;;;;;;
2016-12-18T21:57:32.117Z;0;4.9460e+00;0;     0.179; 40199.180;  19971.369; 1;  19971.369;  44886.855;  48434.184;   8235.002;253;   2.475; 276.746;;; 333.622; 136.813;  13.933; -12.301; -13.158;   2.593;   2.481;   2.115;   1.172;  -0.527;;;;;;;;;;;;;;;;;;
2016-12-18T21:57:48.117Z;0;5.0190e+00;0;     0.122; 40199.180;  20118.443; 1;  20118.443;  44952.484;  48538.039;   8338.857;253;   2.475; 276.835;;; 333.711; 136.902;  13.937; -12.418; -13.275;   2.595;   2.481;   2.113;   1.174;  -0.532;;;;;;;;;;;;;;;;;;
2016-12-18T21:58:04.117Z;0;4.9280e+00;0;     0.135; 40344.555;  19934.424; 1;  19934.424;  45000.715;  48532.496;   8187.942;253;   2.475; 276.925;;; 333.799; 136.991;  13.941; -12.534; -13.391;   2.598;   2.481;   2.111;   1.176;  -0.537;;;;;;;;;;;;;;;;;;
2016-12-18T21:58:20.117Z;0;4.5800e+00;0;     0.127; 40344.555;  19218.676; 1;  19218.676;  44688.262;  48034.047;   7689.494;253;   2.476; 277.014;;; 333.887; 137.080;  13.945; -12.651; -13.507;   2.600;   2.482;   2.109;   1.178;  -0.542;;;;;;;;;;;;;;;;;;
2016-12-18T21:58:36.117Z;0;4.6990e+00;0;     0.117; 40344.555;  19466.211; 1;  19466.211;  44795.273;  48205.367;   7860.813;253;   2.476; 277.103;;; 333.976; 137.170;  13.949; -12.768; -13.624;   2.603;   2.482;   2.107;   1.180;  -0.547;;;;;;;;;;;;;;;;;;
2016-12-18T21:58:52.116Z;0;5.3320e+00;0;     0.166; 40344.555;  20735.510; 1;  20735.510;  45361.266;  49101.191;   8756.638;253;   2.476; 277.192;;; 334.064; 137.259;  13.954; -12.885; -13.740;   2.606;   2.482;   2.105;   1.181;  -0.552;;;;;;;;;;;;;;;;;;
2016-12-18T21:59:08.116Z;0;4.5640e+00;0;     0.118; 40490.578;  19183.504; 1;  19183.504;  44805.062;  48135.762;   7645.185;253;   2.476; 277.281;;; 334.152; 137.348;  13.958; -13.002; -13.856;   2.608;   2.482;   2.103;   1.183;  -0.557;;;;;;;;;;;;;;;;;;
2016-12-18T21:59:24.116Z;0;4.5120e+00;0;     0.146; 40490.578;  19074.377; 1;  19074.377;  44758.449;  48060.816;   7570.239;253;   2.476; 277.370;;; 334.240; 137.438;  13.962; -13.118; -13.973;   2.611;   2.483;   2.101;   1.185;  -0.562;;;;;;;;;;;;;;;;;;
2016-12-18T21:59:40.116Z;0;4.2380e+00;0;     0.132; 40490.578;  18486.488; 1;  18486.488;  44511.090;  47661.012;   7170.436;253;   2.476; 277.458;;; 334.329; 137.527;  13.966; -13.235; -14.089;   2.613;   2.483;   2.098;   1.187;  -0.567;;;;;;;;;;;;;;;;;;
2016-12-18T21:59:56.116Z;0;4.2640e+00;0;     0.169; 40490.578;  18542.713; 1;  18542.713;  44534.469;  47698.957;   7208.380;253;   2.477; 277.547;;; 334.417; 137.616;  13.970; -13.352; -14.205;   2.616;   2.483;   2.096;   1.188;  -0.572;;;;;;;;;;;;;;;;;;
2016-12-18T22:00:12.116Z;0;4.1120e+00;0;     0.146; 40637.270;  18209.594; 1;  18209.594;  44530.629;  47602.992;   6965.724;253;   2.477; 277.636;;; 334.505; 137.705;  13.974; -13.468; -14.321;   2.619;   2.484;   2.094;   1.190;  -0.577;;;;;;;;;;;;;;;;;;
2016-12-18T22:00:28.116Z;0;4.1040e+00;0;     0.174; 40637.270;  18191.748; 1;  18191.748;  44523.336;  47591.086;   6953.817;253;   2.477; 277.725;;; 334.592; 137.792;  13.978; -13.585; -14.437;   2.622;   2.484;   2.092;   1.192;  -0.582;;;;;;;;;;;;;;;;;;
2016-12-18T22:00:44.116Z;0;3.4640e+00;0;     0.371; 40637.270;  16713.049; 1;  16713.049;  43939.887;  46627.812;   5990.544;253;   2.477; 277.813;;; 334.680; 137.880;  13.982; -13.702; -14.553;   2.625;   2.484;   2.090;   1.194;  -0.587;;;;;;;;;;;;;;;;;;
2016-12-18T22:01:00.116Z;0;3.8570e+00;0;     0.148; 40784.547;  17637.156; 1;  17637.156;  44434.766;  47353.617;   6569.071;253;   2.478; 277.902;;; 334.768; 137.968;  13.986; -13.818; -14.669;   2.627;   2.484;   2.088;   1.195;  -0.592;;;;;;;;;;;;;;;;;;
2016-12-18T22:01:16.115Z;0;3.6740e+00;0;     0.194; 40784.547;  17212.037; 1;  17212.037;  44267.746;  47077.457;   6292.911;253;   2.478; 277.990;;; 334.856; 138.056;  13.990; -13.935; -14.785;   2.630;   2.485;   2.086;   1.197;  -0.597;;;;;;;;;;;;;;;;;;
2016-12-18T22:01:32.115Z;0;3.7020e+00;0;     0.182; 40784.547;  17278.234; 1;  17278.234;  44293.527;  47120.203;   6335.656;253;   2.478; 278.079;;; 334.943; 138.143;  13.994; -14.051; -14.901;   2.633;   2.485;   2.083;   1.199;  -0.602;;;;;;;;;;;;;;;;;;
2016-12-18T22:01:48.115Z;0;3.7010e+00;0;     0.143; 40784.547;  17275.127; 1;  17275.127;  44292.316;  47118.195;   6333.647;253;   2.478; 278.167;;; 335.031; 138.231;  13.999; -14.168; -15.017;   2.636;   2.485;   2.081;   1.201;  -0.607;;;;;;;;;;;;;;;;;;
2016-12-18T22:02:04.115Z;0;3.1820e+00;0;     0.171; 40932.273;  16019.774; 1;  16019.774;  43955.480;  46456.441;   5524.167;253;   2.478; 278.256;;; 335.118; 138.318;  14.003; -14.284; -15.133;   2.639;   2.486;   2.079;   1.202;  -0.612;;;;;;;;;;;;;;;;;;
2016-12-18T22:03:08.115Z;0;3.0660e+00;0;     0.135; 41080.395;  15724.583; 1;  15724.583;  43987.059;  46408.367;   5327.973;253;   2.480; 278.609;;; 335.468; 138.668;  14.019; -14.749; -15.596;   2.651;   2.487;   2.070;   1.209;  -0.631;;;;;;;;;;;;;;;;;;
2016-12-18T22:03:24.115Z;0;2.9040e+00;0;     0.075; 41080.395;  15302.490; 1;  15302.490;  43837.941;  46153.980;   5073.586;253;   2.480; 278.697;;; 335.555; 138.755;  14.023; -14.865; -15.711;   2.654;   2.487;   2.068;   1.211;  -0.636;;;;;;;;;;;;;;;;;;